Flight Information

DEPARTURE
SACRAMENTO, CA
Elevation:
23
Runways:
12/30 - 3837x100 - ASPH-G
2/20 - 5503x150 - ASPH-G
H1 - 60x60 - ASPH-G
Active PE Departure:
20 - 30
Current PE ATIS:
G
Altimeter:
30.10
Remarks:
ATIS:
125.5 916-428-7066
Ground:
125
Tower:
EXECUTIVE TOWER 119.5
DESTINATION
,
Elevation:
TPA:
1000 (est.)


6847.4 NM69° True-16° Var53° HDG

Flight Plan:
(click to file on line)

1. Type
2. Aircraft Identification
3. Aircraft Type / Special Equipment
4. True Airspeed
kts
5. Departure Airport
(ICAO code)
6. Arriving Airport
(ICAO code)
7. Cruising Altitude
ft
8. Alternate Airport
(ICAO code)
9. Route of Flight
10. Remarks


00:00:00 Departure ATIS: Destination ATIS:

Clearance Limit:
Route:
Altitude: Expect in minutes
Frequency:
Transponder: (7500 Hijack / 7600 Lost Comms / 7700 Emergency)


KSAC 211753Z 00000KT 10SM CLR 26/07 A3010 RMK AO2 SLP194 T02610072 10261 20133 51010
Time: 2021-09-21T17:53:00Z
1632248258
Winds: calm
Visibility: 10.0 sm
Clouds (AGL): CLR
Temperature: 26.1 C
Dew Point: 7.2 C
Pressure: 30.100393 in Hgbr


Notes:

Data extracted from FAA Digital Chart Supplement. Effective: 0901Z Thursday, AUG 12, 2021 to 0901Z Thursday, OCT 7, 2021
Current ATIS data is provided courtisy of PilotEdge.